Preview of NWS' New Version of Forecast
This preview is not operational and should not be used for support decisions.

Regional Weather Roundup (RWR)

Issued by National Weather Service (NWS)

                            
000
ASCA42 TJSJ 231010
RWRPR 
PUERTO RICO/U.S. VIRGIN ISLANDS HOURLY WEATHER ROUNDUP
NATIONAL WEATHER SERVICE SAN JUAN PR
600 AM AST TUE JUL 23 2019

PRZ001>002-007>008-010-231100-
PUERTO RICO
  
CITY           SKY/WX    TMP DP  RH WIND       PRES   REMARKS
SAN JUAN LMM   PTCLDY    81  75  83 E10       30.02S                  
CEIBA          PTCLDY    82  75  78 E8        30.05R                  
$$

VIZ001>002-231100-
U.S. VIRGIN ISLANDS
  
CITY           SKY/WX    TMP DP  RH WIND       PRES   REMARKS
CHARLOTTE AMA  CLEAR     82  75  78 E12       30.02S                  
CHRISTIANSTED  MOCLDY    81  75  83 E13       30.02S                  
$$

HOURLY WEATHER ROUNDUP FOR THE NEWS MEDIA
  
CITY           SKY/WX    TMP DP  RH WIND       PRES   REMARKS
ORLANDO        FAIR      76  73  91 SE6       29.95S                  
NEW YORK       CLOUDY    70  70 100 N9        29.72                   
NEWARK         CLOUDY    69  67  93 N14       29.72R                  
CHICAGO        FAIR      63  53  70 NW7       30.09R                  
HARTFORD       CLOUDY    67  65  93 NE8       29.76S FOG              
BOSTON         HVY RAIN  67  63  87 E16       29.78F FOG              
DALLAS         PTCLDY    78  61  55 NE8       30.10R                  
PHILADELPHIA   LGT RAIN  69  66  90 NW15      29.75                   
LOS ANGELES    CLOUDY    65  62  90 NW5       29.97F                  
WASHINGTON DC  CLOUDY    68  62  81 NW6       29.87R